TimeEST,TemperatureF,Dew PointF,Humidity,Sea Level PressureIn,VisibilityMPH,Wind Direction,Wind SpeedMPH,Gust SpeedMPH,PrecipitationIn,Events,Conditions,WindDirDegrees,DateUTC
12:15 AM,23.5,14.7,69,30.26,10.0,WNW,8.1,-,N/A,Snow,Light Snow,290,2013-02-21 05:15:00
12:35 AM,23.4,15.1,71,30.26,10.0,West,9.2,-,N/A,Snow,Light Snow,270,2013-02-21 05:35:00
12:55 AM,23.5,15.4,71,30.26,10.0,West,8.1,-,N/A,Snow,Light Snow,270,2013-02-21 05:55:00
1:15 AM,23.5,15.6,72,30.26,10.0,West,8.1,-,N/A,,Overcast,260,2013-02-21 06:15:00
1:35 AM,23.5,15.8,72,30.26,10.0,West,8.1,-,N/A,,Overcast,270,2013-02-21 06:35:00
1:55 AM,23.7,15.8,72,30.27,10.0,West,9.2,-,N/A,Snow,Light Snow,270,2013-02-21 06:55:00
2:15 AM,23.7,15.8,72,30.26,10.0,WNW,5.8,-,N/A,Snow,Light Snow,290,2013-02-21 07:15:00
2:35 AM,23.9,15.8,71,30.26,10.0,WNW,6.9,-,N/A,,Overcast,300,2013-02-21 07:35:00
2:55 AM,24.1,15.4,70,30.26,10.0,NW,10.4,16.1,N/A,,Overcast,310,2013-02-21 07:55:00
3:15 AM,24.4,14.9,67,30.27,10.0,WNW,5.8,-,N/A,,Overcast,300,2013-02-21 08:15:00
3:35 AM,24.4,15.1,68,30.27,10.0,NW,10.4,-,N/A,,Overcast,310,2013-02-21 08:35:00
3:55 AM,24.4,14.7,67,30.27,10.0,NNW,10.4,-,N/A,,Overcast,340,2013-02-21 08:55:00
4:15 AM,24.1,12.9,62,30.27,10.0,North,11.5,-,N/A,,Overcast,350,2013-02-21 09:15:00
4:35 AM,23.9,12.2,61,30.27,10.0,NNW,10.4,-,N/A,,Overcast,330,2013-02-21 09:35:00
4:55 AM,23.5,11.7,61,30.28,10.0,NW,10.4,-,N/A,,Overcast,320,2013-02-21 09:55:00
5:15 AM,23.5,11.5,60,30.28,10.0,NW,8.1,-,N/A,,Overcast,320,2013-02-21 10:15:00
5:35 AM,23.5,11.7,61,30.28,10.0,NW,8.1,-,N/A,,Overcast,320,2013-02-21 10:35:00
5:55 AM,23.5,11.5,60,30.29,10.0,NW,9.2,-,N/A,,Overcast,310,2013-02-21 10:55:00
6:15 AM,23.5,11.8,61,30.30,10.0,NNW,6.9,-,N/A,,Overcast,330,2013-02-21 11:15:00
7:15 AM,23.5,12.4,62,30.31,10.0,NNW,6.9,-,N/A,,Overcast,330,2013-02-21 12:15:00
7:35 AM,23.5,12.6,63,30.31,10.0,NNW,6.9,-,N/A,,Overcast,330,2013-02-21 12:35:00
7:55 AM,23.7,12.9,63,30.32,10.0,NNW,3.5,-,N/A,,Overcast,330,2013-02-21 12:55:00
8:15 AM,23.9,13.3,64,30.34,10.0,NNW,5.8,-,N/A,,Overcast,340,2013-02-21 13:15:00
8:35 AM,24.1,13.3,63,30.34,10.0,NW,3.5,-,N/A,,Overcast,320,2013-02-21 13:35:00
8:55 AM,24.4,13.5,63,30.33,10.0,NW,4.6,-,N/A,,Overcast,320,2013-02-21 13:55:00
9:15 AM,24.6,13.6,63,30.34,10.0,NW,3.5,-,N/A,,Overcast,320,2013-02-21 14:15:00
9:35 AM,25.0,14.0,63,30.34,10.0,NNW,4.6,-,N/A,,Overcast,330,2013-02-21 14:35:00
9:55 AM,25.2,13.8,62,30.35,10.0,Calm,Calm,-,N/A,,Overcast,0,2013-02-21 14:55:00
10:15 AM,25.5,13.8,61,30.35,10.0,NW,3.5,-,N/A,,Overcast,310,2013-02-21 15:15:00
10:35 AM,25.5,14.0,62,30.34,10.0,Calm,Calm,-,N/A,,Overcast,0,2013-02-21 15:35:00
10:55 AM,25.9,14.2,61,30.34,10.0,Calm,Calm,-,N/A,,Overcast,0,2013-02-21 15:55:00
11:15 AM,26.2,14.0,60,30.34,10.0,North,3.5,-,N/A,,Overcast,350,2013-02-21 16:15:00
11:35 AM,26.4,14.2,60,30.34,10.0,Calm,Calm,-,N/A,,Overcast,0,2013-02-21 16:35:00
11:55 AM,26.8,14.4,60,30.34,10.0,ENE,3.5,-,N/A,,Overcast,60,2013-02-21 16:55:00
12:15 PM,27.3,14.7,59,30.32,10.0,Calm,Calm,-,N/A,,Overcast,0,2013-02-21 17:15:00
12:35 PM,27.5,14.4,58,30.32,10.0,Calm,Calm,-,N/A,,Overcast,0,2013-02-21 17:35:00
12:55 PM,27.9,14.5,57,30.32,10.0,East,4.6,-,N/A,,Overcast,80,2013-02-21 17:55:00
1:15 PM,28.6,15.1,57,30.30,10.0,ENE,5.8,-,N/A,,Overcast,60,2013-02-21 18:15:00
1:35 PM,29.7,14.9,54,30.29,10.0,NNE,5.8,-,N/A,,Overcast,20,2013-02-21 18:35:00
1:55 PM,29.7,14.9,54,30.28,10.0,NE,6.9,-,N/A,,Overcast,50,2013-02-21 18:55:00
2:15 PM,30.2,15.1,53,30.26,10.0,NE,10.4,-,N/A,,Overcast,40,2013-02-21 19:15:00
2:35 PM,30.4,15.6,54,30.26,10.0,ENE,9.2,-,N/A,,Mostly Cloudy,60,2013-02-21 19:35:00
2:55 PM,30.4,16.0,55,30.23,10.0,NE,9.2,-,N/A,,Mostly Cloudy,50,2013-02-21 19:55:00
3:15 PM,30.9,16.2,54,30.25,10.0,ENE,10.4,-,N/A,,Mostly Cloudy,60,2013-02-21 20:15:00
3:35 PM,30.6,16.0,55,30.27,10.0,ENE,5.8,-,N/A,,Overcast,60,2013-02-21 20:35:00
3:55 PM,29.8,16.3,57,30.26,10.0,ESE,10.4,-,N/A,,Overcast,120,2013-02-21 20:55:00
4:15 PM,29.3,17.1,60,30.27,10.0,East,9.2,-,N/A,,Overcast,90,2013-02-21 21:15:00
4:35 PM,29.3,16.7,59,30.26,10.0,East,9.2,-,N/A,,Overcast,80,2013-02-21 21:35:00
4:55 PM,29.1,16.7,60,30.26,10.0,East,8.1,-,N/A,,Mostly Cloudy,90,2013-02-21 21:55:00
5:15 PM,29.1,16.9,60,30.26,10.0,ENE,8.1,-,N/A,,Scattered Clouds,70,2013-02-21 22:15:00
5:35 PM,29.1,16.9,60,30.26,10.0,ENE,5.8,-,N/A,,Clear,70,2013-02-21 22:35:00
5:55 PM,29.1,17.1,61,30.27,10.0,ENE,5.8,-,N/A,,Clear,60,2013-02-21 22:55:00
6:15 PM,28.8,17.2,62,30.26,10.0,ENE,4.6,-,N/A,,Clear,60,2013-02-21 23:15:00
6:35 PM,28.4,17.8,64,30.26,10.0,NE,5.8,-,N/A,,Clear,50,2013-02-21 23:35:00
6:55 PM,28.9,18.3,65,30.25,10.0,ENE,11.5,-,N/A,,Clear,70,2013-02-21 23:55:00
7:15 PM,29.3,18.0,63,30.25,10.0,ENE,13.8,-,N/A,,Clear,70,2013-02-22 00:15:00
7:35 PM,29.1,17.6,62,30.25,10.0,ENE,11.5,-,N/A,,Clear,70,2013-02-22 00:35:00
7:55 PM,28.9,17.4,62,30.23,10.0,ENE,12.7,-,N/A,,Clear,70,2013-02-22 00:55:00
8:15 PM,28.8,17.6,63,30.22,10.0,ENE,15.0,19.6,N/A,,Clear,70,2013-02-22 01:15:00
8:35 PM,28.8,17.6,63,30.22,10.0,ENE,10.4,17.3,N/A,,Clear,70,2013-02-22 01:35:00
8:55 PM,28.4,17.8,64,30.22,10.0,ENE,11.5,-,N/A,,Clear,70,2013-02-22 01:55:00
9:15 PM,28.2,17.4,64,30.21,10.0,ENE,13.8,21.9,N/A,,Clear,70,2013-02-22 02:15:00
9:35 PM,28.2,17.1,63,30.22,10.0,ENE,11.5,-,N/A,,Clear,70,2013-02-22 02:35:00
9:55 PM,28.0,16.9,63,30.22,10.0,East,8.1,-,N/A,,Clear,80,2013-02-22 02:55:00
10:15 PM,28.2,16.7,62,30.23,10.0,East,5.8,-,N/A,,Clear,90,2013-02-22 03:15:00
10:35 PM,28.2,17.1,63,30.22,10.0,East,6.9,-,N/A,,Clear,100,2013-02-22 03:35:00
10:55 PM,28.4,17.2,63,30.22,10.0,East,8.1,-,N/A,,Scattered Clouds,90,2013-02-22 03:55:00
11:15 PM,28.4,17.2,63,30.22,10.0,ESE,5.8,-,N/A,,Scattered Clouds,110,2013-02-22 04:15:00
11:35 PM,28.6,17.4,63,30.20,10.0,East,9.2,-,N/A,,Overcast,100,2013-02-22 04:35:00
11:55 PM,28.8,17.8,64,30.19,10.0,East,8.1,-,N/A,,Overcast,90,2013-02-22 04:55:00